Tutti
Thomas C Russell Fld Airport (Alexander City, AL) ALX Meteo
|
Alexander City, AL (KALX)
Cielo sereno
Venti leggeri |
|
33 °C |
There is no TAF data available at ALX or any nearby airports.
Storico METAR ALX recente
| Date | Time (CDT) | Flight Rules | Wind Dir. | Speed | Type | Height AGL (ft) | Visibility | Temp (°C) | Temp (°F) | Dew Point (°C) | Dew Point (°F) | Rel. Humid. | Pressure | Density Altitude | Remarks |
|---|---|---|---|---|---|---|---|---|---|---|---|---|---|---|---|
| 05-set | 14:55 | VFR | 180° | 6 kt | 10 miles | 33° | 91° | 25° | 77° | 63% | 29.92 in Hg | 2.845 ft | |||
| 05-set | 14:15 | VFR | 220° | 8 kt | 10 miles | 32° | 89° | 25° | 77° | 67% | 29.93 in Hg | 2.715 ft | |||
| 05-set | 13:55 | VFR | 220° | 10 kt | 10 miles | 31° | 87° | 25° | 77° | 71% | 29.94 in Hg | 2.585 ft | |||
| 05-set | 13:35 | VFR | 230° | 11 kt | 10 miles | 31° | 87° | 25° | 77° | 71% | 29.94 in Hg | 2.585 ft | Wind gusting to 15 KT | ||
| 05-set | 13:15 | VFR | 210° | 13 kt | 10 miles | 31° | 87° | 25° | 77° | 71% | 29.96 in Hg | 2.565 ft | Wind gusting to 16 KT | ||
| 05-set | 12:55 | VFR | 220° | 9 kt | 10 miles | 31° | 87° | 25° | 77° | 71% | 29.96 in Hg | 2.565 ft | |||
| 05-set | 12:15 | VFR | 230° | 8 kt | 10 miles | 30° | 86° | 26° | 78° | 79% | 29.97 in Hg | 2.435 ft | |||
| 05-set | 11:55 | VFR | 230° | 8 kt | 10 miles | 29° | 84° | 26° | 78° | 84% | 29.98 in Hg | 2.305 ft | |||
| 05-set | 11:15 | VFR | 200° | 11 kt | 10 miles | 30° | 86° | 25° | 77° | 75% | 29.99 in Hg | 2.415 ft | |||
| 05-set | 10:55 | VFR | 100° | 6 kt | 10 miles | 34° | 93° | 23° | 73° | 53% | 29.98 in Hg | 2.905 ft | |||
| 05-set | 10:15 | VFR | 360° | 4 kt | 10 miles | 32° | 89° | 23° | 73° | 59% | 29.97 in Hg | 2.675 ft | |||
| 05-set | 09:55 | VFR | 10° | 6 kt | 10 miles | 32° | 89° | 24° | 75° | 63% | 29.97 in Hg | 2.675 ft | |||
| 05-set | 09:15 | VFR | 360° | 9 kt | 10 miles | 29° | 84° | 24° | 75° | 74% | 29.97 in Hg | 2.315 ft | |||
| 05-set | 08:55 | VFR | 10° | 6 kt | 10 miles | 29° | 84° | 24° | 75° | 74% | 29.98 in Hg | 2.305 ft | |||
| 05-set | 08:15 | VFR | 30° | 4 kt | 10 miles | 27° | 80° | 23° | 73° | 79% | 29.98 in Hg | 2.065 ft | |||
| 05-set | 07:55 | VFR | 10° | 5 kt | 10 miles | 26° | 78° | 24° | 75° | 89% | 29.98 in Hg | 1.945 ft | |||
| 05-set | 07:15 | VFR | Variable | 1 kt | 10 miles | 24° | 75° | 23° | 73° | 94% | 29.98 in Hg | 1.705 ft | |||
| 05-set | 06:55 | VFR | Calm | 10 miles | 23° | 73° | 23° | 73° | 100% | 29.98 in Hg | 1.585 ft | ||||
| 05-set | 06:15 | VFR | Calm | 10 miles | 23° | 73° | 23° | 73° | 100% | 29.97 in Hg | 1.595 ft | ||||
| 05-set | 05:55 | VFR | 300° | 1 kt | 10 miles | 23° | 73° | 23° | 73° | 100% | 29.96 in Hg | 1.605 ft | |||
| 05-set | 05:35 | VFR | 280° | 2 kt | 10 miles | 23° | 73° | 23° | 73° | 100% | 29.97 in Hg | 1.595 ft | |||
| 05-set | 05:15 | VFR | 310° | 2 kt | 10 miles | 24° | 75° | 23° | 73° | 94% | 29.97 in Hg | 1.715 ft | |||
| 05-set | 04:55 | VFR | Calm | 10 miles | 24° | 75° | 23° | 73° | 94% | 29.97 in Hg | 1.715 ft | ||||
| 05-set | 04:15 | VFR | 350° | 3 kt | 10 miles | 24° | 75° | 23° | 73° | 94% | 29.96 in Hg | 1.725 ft |
Accedi
| Il tuo browser non è supportato. fai l'upgrade del tuo browser |
